Regional Weather Roundup
Issued by NWS

Home | Current Version | Previous Version | Text Only | Print | Product List | Glossary On
Versions: 1 2 3 4 5 6 7 8 9 10 11 12 13 14 15 16 17 18 19 20 21 22 23 24 25 26 27 28 29 30 31 32 33 34 35 36 37 38 39 40 41 42 43 44 45 46 47 48 49 50
000
ASUS44 KOUN 201110
RWROK

WEATHER ROUNDUP FOR OKLAHOMA
NATIONAL WEATHER SERVICE NORMAN OK
600 AM CDT SAT SEP 20 2014

NOTE: "FAIR" INDICATES FEW OR NO CLOUDS BELOW 12,000 FEET WITH NO
      SIGNIFICANT WEATHER AND/OR OBSTRUCTIONS TO VISIBILITY.

OKZ001>007-009>012-014-015-017-201200-
NORTHWEST OKLAHOMA AND THE PANHANDLE

CITY           SKY/WX    TMP DP  RH WIND       PRES   REMARKS
GAGE           MOCLDY    65  63  93 S8        30.00S
ENID/WOODRING  MOCLDY    66  66 100 CALM      29.97R FOG
$$

OKZ016-021>023-033>039-044-045-201200-
SOUTHWEST OKLAHOMA

CITY           SKY/WX    TMP DP  RH WIND       PRES   REMARKS
LAWTON/REGL    MOCLDY    71  68  90 SE6       29.98R
FREDERICK      MOCLDY    71  68  90 E8        29.95R
CLINTON        MOCLDY    71  67  87 S7        30.01S
HOBART         CLOUDY    72  68  87 S8        29.99R
ALTUS AFB      MOCLDY    70  70 100 E5        29.98R
$$

OKZ018>020-024>031-201200-
CENTRAL OKLAHOMA

CITY           SKY/WX    TMP DP  RH WIND       PRES   REMARKS
OKLAHOMA CITY  MOCLDY    70  67  90 S7        29.99S FOG
OKC/WILEY POST MOCLDY    71  68  90 S10       29.99R FOG
OKC/TINKER AFB MOCLDY    69  67  95 S9        29.99S
STILLWATER     PTCLDY    68  66  93 S6        29.98R FOG
GUTHRIE        MOCLDY    72  69  90 S8        29.98S
$$

OKZ008-013-054>072-201200-
NORTHEAST OKLAHOMA

CITY           SKY/WX    TMP DP  RH WIND       PRES   REMARKS
TULSA          PTCLDY    70  68  93 S5        29.97S FOG
TULSA/JONES    FOG       65  65 100 CALM      29.99R VSB 3/4
PONCA CITY     PTCLDY    70  67  90 S3        29.98R FOG
BARTLESVILLE   FOG       64  64 100 S3        29.99R VSB 3/4
MUSKOGEE       FOG       67  66  97 S5        30.00R VSB 1/4
$$

OKZ032-040>043-046>053-073>077-201200-
SOUTH CENTRAL/SOUTHEAST OKLAHOMA

CITY           SKY/WX    TMP DP  RH WIND       PRES   REMARKS
ARDMORE/DWNTWN CLEAR     68  66  94 CALM      29.99R FOG
MCALESTER      MOCLDY    70  68  93 CALM      30.00S
$$



USA.gov is the U.S. government's official web portal to all federal, state and local government web resources and services.